Hourly Data Report for October 24, 2016

All times are specified in Local Standard Time (LST). Add 1 hour to adjust for Daylight Saving Time where and when it is observed.

KAMLOOPS A
BRITISH COLUMBIA

50°42'09.000" N
120°26'55.000" W
345.30 m
1163781
71887
YKA

Download Data

Hourly Data (October 2016)
Hourly Data Report for October 24, 2016
Temp Definition
°C
Dew Point Temp Definition
°C
Rel Hum Definition
%
Wind Dir Definition
10's deg

Wind Spd Definition
km/h
Visibility Definition
km
Stn Press Definition
kPa
Hmdx Definition


Wind Chill Definition


Weather Definition


TIME
00:00 Legend Double Dagger 8.8 3.0 67 11 15 64.4 97.25     LegendNANA
01:00 Legend Double Dagger 8.3 3.4 71 10 17 64.4 97.20     Rain
02:00 Legend Double Dagger 8.8 3.0 67 11 19 64.4 97.17     LegendNANA
03:00 Legend Double Dagger 8.0 3.7 74 11 16 64.4 97.14     LegendNANA
04:00 Legend Double Dagger 7.8 3.7 75 8 11 64.4 97.12     Cloudy
05:00 Legend Double Dagger 7.9 4.0 76 11 17 64.4 97.10     LegendNANA
06:00 Legend Double Dagger 7.8 3.3 73 11 16 64.4 97.08     LegendNANA
07:00 Legend Double Dagger 7.6 3.5 75 11 11 64.4 97.06     Mostly Cloudy
08:00 Legend Double Dagger 8.7 3.4 69 12 14 64.4 97.02     LegendNANA
09:00 Legend Double Dagger 8.7 3.8 71 11 13 64.4 96.98     LegendNANA
10:00 Legend Double Dagger 10.4 3.7 63 12 15 64.4 96.94     Mostly Cloudy
11:00 Legend Double Dagger 11.0 4.3 63 11 15 64.4 96.87     LegendNANA
12:00 Legend Double Dagger 11.9 4.4 60 12 12 64.4 96.76     LegendNANA
13:00 Legend Double Dagger 12.3 5.1 61 13 11 64.4 96.67     Mostly Cloudy
14:00 Legend Double Dagger 13.1 5.3 59 14 10 64.4 96.62     LegendNANA
15:00 Legend Double Dagger 13.4 5.6 59 12 12 64.4 96.55     LegendNANA
16:00 Legend Double Dagger 12.6 5.6 62 11 14 64.4 96.54     Cloudy
17:00 Legend Double Dagger 12.1 6.0 66 11 18 64.4 96.54     LegendNANA
18:00 Legend Double Dagger 11.9 5.4 64 10 20 64.4 96.51     LegendNANA
19:00 Legend Double Dagger 12.0 6.1 67 12 18 64.4 96.43     Cloudy
20:00 Legend Double Dagger 12.4 6.1 65 11 21 64.4 96.45     LegendNANA
21:00 Legend Double Dagger 11.5 5.6 67 9 21 64.4 96.43     LegendNANA
22:00 Legend Double Dagger 11.0 5.6 69 8 19 64.4 96.45     Cloudy
23:00 Legend Double Dagger 11.4 5.7 68 7 13 64.4 96.44     LegendNANA

Notes on Data Quality.

Legend

  • E = Estimated
  • M = Missing
  • NA = Not Available
  • ‡ = Partner data that is not subject to review by the National Climate Archives
Date modified: